Other Public Products
Issued by NWS Grand Forks, ND

Home | Current Version | Previous Version | Text Only | Print | Product List | Glossary On
Versions: 1 2 3 4 5 6 7 8 9 10 11 12 13 14 15 16 17 18 19 20 21 22 23 24 25 26 27 28 29 30 31 32 33 34 35 36 37 38 39 40 41 42 43 44 45 46 47 48 49 50
599
FPUS83 KFGF 292231
OPUFGF
PRAIRIE TO PINES WEATHER ROUNDUP
NATIONAL WEATHER SERVICE EASTERN NORTH DAKOTA/GRAND FORKS ND
500 PM CDT FRI APR 29 2016

 **SATELLITE DATA USED TO AUGMENT SKY COVER AT AUTOMATED STATIONS**
 *****  WEATHER ACROSS EASTERN NORTH DAKOTA  *****

CITY           SKY/WX    TMP DP  RH WIND       PRES   REMARKS
GRAND FORKS    FAIR      64  32  30 NE14      30.14R
GRAND FORKS AF FAIR      62  30  29 E13G21    30.14R
GRAND CITY NWS NOT AVBL
BUXTON           N/A     65  32  29 NE13        N/A
DEVILS LAKE    FAIR      60  27  28 E15       30.16R
FARGO          FAIR      65  31  28 NE10      30.09S
WAHPETON ARPT  FAIR      61  32  33 S6        30.11S
$$

 *****  WEATHER ACROSS CENTRAL AND WESTERN NORTH DAKOTA  *****

CITY           SKY/WX    TMP DP  RH WIND       PRES   REMARKS
JAMESTOWN      FAIR      61  31  32 E9        30.12R
BISMARCK       MOSUNNY   60  33  36 SE15G26   30.11S
MINOT          FAIR      65  21  18 E13G24    30.13S
MINOT AFB      FAIR      61  25  25 E10G22    30.12F
GARRISON         N/A     61  26  26 E16       30.11F
WILLISTON      PTSUNNY   60  27  28 SE10G22   30.11S
DICKINSON      CLOUDY    55  27  34 E14G21    30.08S
HETTINGER      CLOUDY    54  28  36 E13       30.09F
$$

 *****  OTHER OBSERVATIONS NORTHEAST NORTH DAKOTA  *****

CITY           SKY/WX    TMP DP  RH WIND       PRES   REMARKS
WALHALLA       FAIR      63  28  27 NE14      30.17S
LANGDON        FAIR      61  28  29 E15G21    30.17S
CAVALIER       FAIR      61  32  33 E9G21     30.16S
GRAFTON        FAIR      63  32  31 NE8G16    30.16S
CANDO          FAIR      61  25  25 E16G22    30.18S
FORT TOTTEN      N/A     61  27  27 E9        29.95S
ROLLA          FAIR      59  19  21 E15       30.17S
RUGBY          FAIR      61  25  25 E15G23    30.15R
 ***** THE ABOVE OBSERVATIONS ARE NON NWS ARE NOT QUALITY
        CONTROLLED AND MAY MIS-REPORT RAIN FOR SNOW...
$$

 *****  OTHER OBSERVATIONS SOUTHEAST NORTH DAKOTA *****

CITY           SKY/WX    TMP DP  RH WIND       PRES   REMARKS
COOPERSTOWN    NOT AVBL
VALLEY CITY    FAIR      59  32  36 E10G21    30.13S
OAKES            N/A    N/A N/A N/A MISG        N/A
GWINNER        FAIR      61  34  36 E8        30.11S
SHEYENNE NWR     N/A     65  34  31 CALM      29.95S
BUFFALO          N/A     63  27  25 E14         N/A
WYNDMERE         N/A     63  36  36 S3          N/A
 ***** THE ABOVE OBSERVATIONS ARE NON NWS ARE NOT QUALITY
       CONTROLLED AND MAY MIS-REPORT RAIN FOR SNOW...
$$

  *****  WEATHER ACROSS NORTHERN MINNESOTA  *****

CITY           SKY/WX    TMP DP  RH WIND       PRES   REMARKS
FLAG ISLAND    FAIR      54  30  40 N12       30.18F
WARROAD        FAIR      54  36  50 NE9       30.20S
ROSEAU         FAIR      57  36  44 NE14G22   30.18F
HALLOCK        FAIR      64  23  20 E13G20    30.15S
THF RVR FALLS  FAIR      61  30  31 NE18G24   30.15R
HALSTAD        NOT AVBL
FOSSTON        FAIR      63  32  31 E10       30.14R
BAUDETTE       FAIR      57  31  37 N15       30.16F
WASKISH        FAIR      59  32  36 NE12G17   30.15R
CROOKSTON      FAIR      63  32  31 NE12G22   30.14R
$$
  *****  WEATHER ACROSS CENTRAL AND WEST MINNESOTA  *****

CITY           SKY/WX    TMP DP  RH WIND       PRES   REMARKS
BEMIDJI        FAIR      60  32  34 E10G16    30.12R
PARK RAPIDS    FAIR      60  28  29 E7G17     30.10F
WADENA         FAIR      61  34  36 E6        30.09S
DETROIT LAKES  FAIR      61  32  33 E3        30.11S
MOORHEAD       FAIR      64  32  29 N12       30.10S
FERGUS FALLS   FAIR      61  34  36 E6        30.07F
ELBOW LAKE     CLOUDY    57  35  43 CALM      30.11F
MORRIS MN      CLOUDY    57  39  51 SE6       30.11S
STAPLES        FAIR      61  28  29 E6        30.10S
WHEATON        CLOUDY    61  37  41 CALM      30.13S
$$
  *****  WEATHER ELSEWHERE ACROSS MINNESOTA  *****

CITY           SKY/WX    TMP DP  RH WIND       PRES   REMARKS
DULUTH         FAIR      50  29  44 E18       30.15F
INTRNTL FALLS  FAIR      56  30  37 NE10G18   30.17F
ELY            PTSUNNY   52  28  40 NE6       30.19R
CLOQUET        FAIR      52  27  37 E12       30.15S
BRAINERD       FAIR      59  31  34 E7        30.11S
HIBBING        FAIR      55  30  38 N8G17     30.14R
ALEXANDRIA     PTSUNNY   59  32  36 S7        30.11S
SAINT CLOUD    FAIR      59  32  36 E8        30.11S
MINNEAPOLIS    FAIR      59  33  37 NE6       30.11F
$$

  *****  WEATHER ACROSS SOUTH DAKOTA  *****

CITY           SKY/WX    TMP DP  RH WIND       PRES   REMARKS
SIOUX FALLS    CLOUDY    51  40  65 E7        30.08F
BROOKINGS      CLOUDY    49  38  65 E10       30.10F
WATERTOWN      CLOUDY    52  37  56 SE7       30.11S
HURON          CLOUDY    50  39  66 SE12      30.11F
SISSETON         N/A     59  37  44 SE9       30.10S
ABERDEEN       CLOUDY    58  37  45 SE6       30.10F
MITCHELL       CLOUDY    50  40  68 E13       30.07F
PIERRE         CLOUDY    50  38  63 SE13      30.07F
MOBRIDGE       PTSUNNY   60  38  43 SE9       30.05F
RAPID CITY     CLOUDY    44  35  70 E8        30.04F
$$

  *****  SOME WEATHER IN NEARBY STATES *****

CITY           SKY/WX    TMP DP  RH WIND       PRES   REMARKS
GLASGOW MT     MOSUNNY   56  29  35 SE16      30.04F
GREAT FALLS MT CLOUDY    51  29  42 CALM      29.92F
CHEYENNE WY    SNOW      32  31  96 E6        29.92F VSB 1/2
SCOTTSBLUFF NE LGT RAIN  39  35  86 E15       29.97S FOG
OMAHA NE       CLOUDY    49  43  80 NE8       30.02F
DES MOINES IA  CLOUDY    51  40  65 E9        30.06R
DAVENPORT IA   CLOUDY    50  41  71 E10       30.10S
CHICAGO IL     FAIR      50  40  68 NE14      30.09F
EAU CLAIRE WI  FAIR      58  37  45 E9        30.10F
LA CROSSE WI   CLOUDY    53  38  56 E7        30.11F
$$

  *****  SOME NATIONAL WEATHER *****

CITY           SKY/WX    TMP DP  RH WIND       PRES   REMARKS
LA GUARDIA NY  CLOUDY    53  40  61 NE10      30.08S
RALEIGH NC     FAIR      76  59  55 SE8       29.94S
ATLANTA GA     CLOUDY    85  48  27 SW7       29.95S
NEW ORLEANS LA MOSUNNY   84  71  65 S17G24    29.84F
OKLAHOMA CITY  LGT RAIN  67  66  97 E17G30    29.52F
ALBUQUERQUE NM PTSUNNY   56  28  34 NW8       29.79F
SALT LAKE CITY PTSUNNY   57  36  45 N6        29.83F
LOS ANGELES CA SUNNY     65  51  60 SW15      29.99F
BOISE ID       MOSUNNY   63  35  35 NW17G25   29.85F
SEATTLE WA     PTSUNNY   55  44  66 CALM      30.15S
$$

*** WEATHER ACROSS MANITOBA...SASKATCHEWAN AND ONTARIO ***
                ***ONTARIO***

CITY           SKY/WX    TMP DP  RH WIND       PRES   REMARKS
GERALDTON      CLOUDY    43  32  65 N3        30.23R
THUNDER BAY    CLOUDY    52  32  46 E7        30.19R
SIOUX LOOKOUT  MOSUNNY   52  30  43 VRB3      30.23R
TORONTO        PTSUNNY   50  25  37 SE8       30.07R
BIG TROUT LK   CLOUDY    45  21  39 NE7       30.29S
PICKLE LAKE    CLOUDY    45  25  45 N6        30.25R
DRYDEN         SUNNY     54  25  32 NE10      30.21S
KENORA         MOSUNNY   55  28  35 NE6       30.20
$$
                *** MANITOBA***

CITY           SKY/WX    TMP DP  RH WIND       PRES   REMARKS
BRANDON        MOSUNNY   61  16  17 E14G23    30.20S
DAUPHIN        SUNNY     61  23  23 E12G17    30.23F
ISLAND LAKE    MOSUNNY   52  16  24 S7        30.32S
PILOT MOUND      N/A     61  18  18 NE13        N/A
THE PAS        CLOUDY    61  21  21 SE13G21   30.26F
THOMPSON       PTSUNNY   59  21  23 S9        30.25F
WINNIPEG       MOSUNNY   61  30  31 NE10G17   30.21S
LYNN LAKE      SUNNY     64  25  22 W6        30.19S
CHURCHILL      SUNNY     32  23  69 E10       30.45R WCI  24
GILLAM         MOSUNNY   46  21  36 NE10      30.35S
$$
                ***SASKATCHEWAN***

CITY           SKY/WX    TMP DP  RH WIND       PRES   REMARKS
ESTEVAN        PTSUNNY   63  16  16 E10G25    30.12F
KINDERSLEY     MOSUNNY   61  23  23 SE22      30.03F
LLOYDMINSTER   MOSUNNY   64  16  15 S21       30.03F
PRINCE ALBERT  PTSUNNY   64  19  17 SE9G24    30.15F
REGINA         MOSUNNY   63  12  14 SE15G22   30.12F
YORKTON        SUNNY     63  19  19 E16G23    30.19F   C1F1C2F2C3F3C4F4C5F5C6F6C7F7C8F8C9F9CaFaCbFbCcFcCdFdCe!



USA.gov is the U.S. government's official web portal to all federal, state and local government web resources and services.